Tracking 31027 objects as of 19-Jul-2025
HD Live streaming from Space Station
objects crossing your sky now

FENGYUN 1C DEB

Track FENGYUN 1C DEB now!
10-day predictions


NORAD ID: 33745
Int'l Code: 1999-025DJJ
Perigee: 789.8 km
Apogee: 866.5 km
Inclination: 99.1 °
Period: 101.3 minutes
Semi major axis: 7199 km
RCS: 0.0047 m2 (small)
Launch date: May 10, 1999
Source: People's Republic of China (PRC)
Launch site: Taiyaun Space Center, China (TSC)

Note: This is SATELLITE DEBRIS
Your satellite tracking list
FLOCK 4Q 34
Track 1 satellite(s)




NASA's NSSDC Master Catalog

Two Line Element Set (TLE):
1 33745U 99025DJJ 25199.54987934  .00002084  00000-0  96360-3 0  9993
2 33745  99.1228 231.8211 0053244 329.0929  30.7116 14.21290935871094
Source of the keplerian elements: AFSPC